Arcata, CA

9:57 PM PDT on August 19, 2017 (GMT -0700)
Arcata

Weather History for KACV - November, 2011

Change the Weather History Date:

Thursday, November 3, 2011

  Actual Average Record
Temperature  
Mean Temperature 45 °F -  
Max Temperature 52 °F 57 °F 66 °F (2012)
Min Temperature 39 °F 41 °F 33 °F (2002)
Degree Days  
Heating Degree Days 20    
Moisture  
Dew Point 41 °F    
Average Humidity 87    
Maximum Humidity 93    
Minimum Humidity 67    
Precipitation  
Precipitation 0.46 in - - ()
Sea Level Pressure  
Sea Level Pressure 29.92 in    
Wind  
Wind Speed 4 mph (ENE)    
Max Wind Speed 14 mph    
Max Gust Speed -    
Visibility 7 miles    
Events Rain    
Averages and records for this station are not official NWS values.
T = Trace of Precipitation, MM = Missing Value Source: NWS Daily Summary

Daily Weather History Graph

Daily Weather History Graph

Search for Another Location

Airport or City:

Trip Planner

Search our weather history database for the weather conditions in past years. The results will help you decide how hot, cold, wet, or windy it might be!

Date:

Astronomy

Nov. 03, 2011 Rise Set
Actual Time 7:49 AM PDT 6:10 PM PDT
Civil Twilight 7:20 AM PDT 6:38 PM PDT
Nautical Twilight 6:48 AM PDT 7:11 PM PDT
Astronomical Twilight 6:16 AM PDT 7:43 PM PDT
Moon 2:39 PM PDT (11/3) 1:04 AM PDT (11/3)
Length of Visible Light 11h 17m
Length of Day
10h 20m
First Quarter, 61% of the Moon is Illuminated
Nov 3
First Quarter
Nov 10
Full
Nov 18
Last Quarter
Nov 24
New
Dec 2
First Quarter

Hourly Weather History & Observations

Time (PDT) Temp. Windchill Dew Point Humidity Pressure Visibility Wind Dir Wind Speed Gust Speed Precip Events Conditions
12:53 AM 42.1 °F - 39.9 °F 92% 30.02 in 8.0 mi Calm Calm - N/A   Mostly Cloudy
1:03 AM 42.8 °F 40.1 °F 39.2 °F 87% 30.01 in 1.8 mi North 4.6 mph - 0.01 in Rain Light Rain
1:10 AM 42.8 °F 40.1 °F 39.2 °F 87% 30.00 in 1.8 mi ENE 4.6 mph - 0.02 in Rain Light Rain
1:17 AM 42.8 °F 41.1 °F 41.0 °F 93% 30.00 in 1.8 mi East 3.5 mph - 0.02 in Rain Light Rain
1:25 AM 42.8 °F 39.3 °F 41.0 °F 93% 30.00 in 3.0 mi East 5.8 mph - 0.02 in   Overcast
1:53 AM 44.1 °F - 42.1 °F 93% 30.01 in 10.0 mi Calm Calm - 0.02 in   Overcast
2:32 AM 44.6 °F - 42.8 °F 93% 29.98 in 4.0 mi Calm Calm - 0.01 in Rain Light Rain
2:37 AM 44.6 °F - 42.8 °F 93% 29.98 in 1.8 mi Calm Calm - N/A Rain Light Rain
3:07 AM 44.6 °F - 42.8 °F 93% 29.98 in 2.0 mi Calm Calm - 0.03 in Rain Light Rain
3:15 AM 44.6 °F - 42.8 °F 93% 29.99 in 1.8 mi Calm Calm - 0.07 in Rain Heavy Rain
3:26 AM 44.6 °F - 42.8 °F 93% 29.99 in 2.5 mi Calm Calm - 0.09 in Rain Rain
3:37 AM 46.4 °F 44.3 °F 42.8 °F 87% 29.98 in 4.0 mi NNW 4.6 mph - 0.10 in Rain Light Rain
3:46 AM 44.6 °F 41.4 °F 42.8 °F 93% 29.98 in 5.0 mi North 5.8 mph - 0.11 in Rain Rain
3:53 AM 45.0 °F 42.6 °F 43.0 °F 93% 30.00 in 4.0 mi NE 4.6 mph - 0.12 in Rain Rain
4:00 AM 44.6 °F 42.2 °F 42.8 °F 93% 29.98 in 5.0 mi ENE 4.6 mph - 0.01 in Rain Light Rain
4:53 AM 46.0 °F 42.5 °F 43.0 °F 89% 29.98 in 5.0 mi East 6.9 mph - 0.05 in Rain Light Rain
5:53 AM 46.0 °F 43.9 °F 43.0 °F 89% 29.99 in 7.0 mi ESE 4.6 mph - 0.09 in Rain Light Rain
6:53 AM 45.0 °F 42.6 °F 42.1 °F 90% 29.96 in 10.0 mi East 4.6 mph - 0.04 in   Overcast
7:53 AM 44.1 °F - 42.1 °F 93% 29.96 in 10.0 mi Calm Calm - N/A   Overcast
8:53 AM 44.1 °F 41.5 °F 41.0 °F 89% 29.96 in 10.0 mi SSE 4.6 mph - N/A   Partly Cloudy
9:53 AM 48.0 °F - 43.0 °F 83% 29.95 in 10.0 mi South 5.8 mph - N/A   Clear
10:26 AM 48.2 °F - 44.6 °F 87% 29.92 in 10.0 mi South 5.8 mph - N/A   Partly Cloudy
10:53 AM 50.0 °F - 45.0 °F 83% 29.93 in 10.0 mi North - - N/A   Partly Cloudy
11:53 AM 50.0 °F - 45.0 °F 83% 29.92 in 10.0 mi Variable 3.5 mph - N/A   Mostly Cloudy
12:53 PM 48.9 °F - 45.0 °F 86% 29.91 in 5.0 mi WNW 10.4 mph - 0.00 in Rain Light Rain
12:57 PM 48.2 °F - 44.6 °F 87% 29.89 in 4.0 mi NW 12.7 mph - 0.00 in Rain Rain
1:28 PM 44.6 °F 38.1 °F 39.2 °F 81% 29.89 in 1.8 mi NNW 13.8 mph - 0.07 in Rain Heavy Rain
1:38 PM 44.6 °F 39.7 °F 39.2 °F 81% 29.88 in 2.0 mi North 9.2 mph - 0.12 in Rain Rain
1:46 PM 44.6 °F 43.1 °F 41.0 °F 87% 29.87 in 5.0 mi North 3.5 mph - 0.13 in Rain Light Rain
1:53 PM 45.0 °F 41.8 °F 41.0 °F 86% 29.89 in 8.0 mi ENE 5.8 mph - 0.14 in Rain Light Rain
2:53 PM 48.0 °F - 42.1 °F 80% 29.86 in 10.0 mi East 5.8 mph - 0.00 in   Mostly Cloudy
3:53 PM 50.0 °F - 41.0 °F 71% 29.83 in 10.0 mi South 6.9 mph - N/A   Overcast
4:02 PM 51.8 °F - 41.0 °F 67% 29.83 in 10.0 mi South 6.9 mph - N/A   Mostly Cloudy
4:53 PM 50.0 °F - 41.0 °F 71% 29.84 in 10.0 mi SSE 5.8 mph - N/A   Clear
5:53 PM 46.0 °F - 39.9 °F 79% 29.84 in 10.0 mi Calm Calm - N/A   Clear
6:53 PM 43.0 °F - 39.9 °F 89% 29.84 in 10.0 mi Calm Calm - N/A   Partly Cloudy
7:53 PM 42.1 °F 40.2 °F 39.0 °F 89% 29.84 in 10.0 mi East 3.5 mph - N/A   Clear
8:53 PM 42.1 °F 40.2 °F 39.0 °F 89% 29.84 in 10.0 mi East 3.5 mph - N/A   Partly Cloudy
9:53 PM 39.9 °F 37.8 °F 37.9 °F 93% 29.85 in 10.0 mi ESE 3.5 mph - N/A   Partly Cloudy
10:53 PM 41.0 °F 39.0 °F 39.0 °F 93% 29.86 in 10.0 mi Variable 3.5 mph - N/A   Overcast
11:11 PM 42.8 °F 41.1 °F 39.2 °F 87% 29.84 in 10.0 mi ENE 3.5 mph - N/A   Overcast
11:31 PM 42.8 °F 40.1 °F 37.4 °F 81% 29.84 in 10.0 mi East 4.6 mph - N/A   Scattered Clouds
11:53 PM 41.0 °F 39.0 °F 37.9 °F 89% 29.86 in 10.0 mi ENE 3.5 mph - N/A   Mostly Cloudy